カタログに戻る

IRIDIUM 139

運用中通信PO
NORAD 42963·PAYLOAD·🇺🇸 United States

打ち上げ Oct 9, 2017 から Vandenberg Space Force Base

Loading…

次のパス (今後24時間)

TLE

最新Source: CelesTrak SupGP

元期: Sep 14, 2026, 20:52 UTC

1 42963C 17061J   26257.86979167 -.00001593  00000+0 -56946-3 0  2573
2 42963  86.4030 347.8466 0002181  95.6807  44.4049 14.34219668    12

AllMySatでIRIDIUM 139をリアルタイム追跡

Download on the App Store